Bluffton, MN

10:45 AM CST on February 10, 2016 (GMT -0600)
Wadena Municipal

Weather History for KADC - March, 2014

Change the Weather History Date:

Wednesday, March 26, 2014

  Actual Average Record
Temperature  
Mean Temperature 22 °F -  
Max Temperature 37 °F 39 °F 69 °F (2007)
Min Temperature 8 °F 19 °F -7 °F (1965)
Degree Days  
Heating Degree Days 42    
Moisture  
Dew Point 14 °F    
Average Humidity 66    
Maximum Humidity 79    
Minimum Humidity 48    
Precipitation  
Precipitation 0.00 in - - ()
Sea Level Pressure  
Sea Level Pressure 29.77 in    
Wind  
Wind Speed 8 mph (SE)    
Max Wind Speed 22 mph    
Max Gust Speed 29 mph    
Visibility 10 miles    
Events      
Averages and records for this station are not official NWS values.
T = Trace of Precipitation, MM = Missing Value Source: NWS Daily Summary

Daily Weather History Graph

Daily Weather History Graph

Search for Another Location

Airport or City:

Trip Planner

Search our weather history database for the weather conditions in past years. The results will help you decide how hot, cold, wet, or windy it might be!

Date:

Astronomy

Mar. 26, 2014 Rise Set
Actual Time 7:12 AM CDT 7:41 PM CDT
Civil Twilight 6:41 AM CDT 8:11 PM CDT
Nautical Twilight 6:06 AM CDT 8:47 PM CDT
Astronomical Twilight 5:29 AM CDT 9:25 PM CDT
Moon 4:36 AM CDT (3/26) 3:07 PM CDT (3/26)
Length of Visible Light 13h 30m
Length of Day
12h 29m
Waning Crescent, 21% of the Moon is Illuminated
Mar 26
Waning Crescent
Mar 30
New
Apr 7
First Quarter
Apr 15
Full
Apr 22
Last Quarter

Hourly Weather History & Observations

Time (CDT) Temp. Windchill Dew Point Humidity Pressure Visibility Wind Dir Wind Speed Gust Speed Precip Events Conditions
12:15 AM 10.4 °F 4.0 °F 3.2 °F 73% 30.05 in 10.0 mi South 3.5 mph - N/A   Clear
12:35 AM 10.4 °F - 3.2 °F 73% 30.05 in 10.0 mi Calm Calm - N/A   Clear
12:53 AM 10.4 °F 4.0 °F 3.2 °F 73% 30.04 in 10.0 mi South 3.5 mph - N/A   Clear
1:14 AM 10.4 °F - 3.2 °F 73% 30.04 in 10.0 mi Calm Calm - N/A   Clear
1:35 AM 8.6 °F 2.0 °F 3.2 °F 79% 30.04 in 10.0 mi South 3.5 mph - N/A   Clear
1:52 AM 10.4 °F - 3.2 °F 73% 30.04 in 10.0 mi Calm Calm - N/A   Clear
2:15 AM 10.4 °F - 3.2 °F 73% 30.03 in 10.0 mi Calm Calm - N/A   Clear
2:34 AM 8.6 °F 2.0 °F 3.2 °F 79% 30.02 in 10.0 mi South 3.5 mph - N/A   Clear
2:53 AM 10.4 °F 0.8 °F 5.0 °F 79% 30.01 in 10.0 mi South 5.8 mph - N/A   Clear
3:15 AM 10.4 °F 4.0 °F 5.0 °F 79% 30.01 in 10.0 mi SSE 3.5 mph - N/A   Clear
3:34 AM 10.4 °F 4.0 °F 5.0 °F 79% 30.01 in 10.0 mi SSE 3.5 mph - N/A   Clear
3:53 AM 10.4 °F 4.0 °F 3.2 °F 73% 30.01 in 10.0 mi South 3.5 mph - N/A   Clear
4:15 AM 10.4 °F 4.0 °F 5.0 °F 79% 29.99 in 10.0 mi SE 3.5 mph - N/A   Clear
4:35 AM 10.4 °F 2.2 °F 5.0 °F 79% 29.98 in 10.0 mi SE 4.6 mph - N/A   Clear
4:52 AM 10.4 °F 4.0 °F 5.0 °F 79% 29.98 in 10.0 mi SE 3.5 mph - N/A   Scattered Clouds
5:14 AM 10.4 °F 4.0 °F 5.0 °F 79% 29.98 in 10.0 mi SE 3.5 mph - N/A   Overcast
5:35 AM 10.4 °F 4.0 °F 5.0 °F 79% 29.97 in 10.0 mi SE 3.5 mph - N/A   Mostly Cloudy
5:53 AM 12.2 °F 4.3 °F 6.8 °F 79% 29.96 in 10.0 mi SE 4.6 mph - N/A   Mostly Cloudy
6:15 AM 12.2 °F 2.9 °F 6.8 °F 79% 29.95 in 10.0 mi SE 5.8 mph - N/A   Overcast
6:35 AM 14.0 °F 3.9 °F 6.8 °F 73% 29.94 in 10.0 mi SE 6.9 mph - N/A   Overcast
6:52 AM 14.0 °F 2.9 °F 6.8 °F 73% 29.94 in 10.0 mi SSE 8.1 mph - N/A   Overcast
7:14 AM 15.8 °F 5.1 °F 6.8 °F 68% 29.93 in 10.0 mi SE 8.1 mph - N/A   Mostly Cloudy
7:35 AM 15.8 °F 5.1 °F 8.6 °F 73% 29.92 in 10.0 mi SE 8.1 mph - N/A   Mostly Cloudy
7:53 AM 15.8 °F 5.1 °F 8.6 °F 73% 29.92 in 10.0 mi SE 8.1 mph - N/A   Overcast
8:15 AM 17.6 °F 7.3 °F 8.6 °F 68% 29.92 in 10.0 mi SE 8.1 mph - N/A   Overcast
8:35 AM 17.6 °F 6.4 °F 10.4 °F 73% 29.91 in 10.0 mi SE 9.2 mph - N/A   Overcast
8:52 AM 19.4 °F 8.6 °F 10.4 °F 68% 29.90 in 10.0 mi SE 9.2 mph - N/A   Overcast
9:14 AM 19.4 °F 6.6 °F 10.4 °F 68% 29.88 in 10.0 mi SE 12.7 mph - N/A   Overcast
9:34 AM 21.2 °F 8.9 °F 10.4 °F 63% 29.87 in 10.0 mi SE 12.7 mph - N/A   Mostly Cloudy
9:53 AM 21.2 °F 9.5 °F 10.4 °F 63% 29.85 in 10.0 mi SE 11.5 mph - N/A   Mostly Cloudy
10:15 AM 23.0 °F 10.6 °F 10.4 °F 59% 29.84 in 10.0 mi SE 13.8 mph - N/A   Scattered Clouds
10:34 AM 24.8 °F 11.1 °F 12.2 °F 59% 29.82 in 10.0 mi SE 18.4 mph 23.0 mph N/A   Mostly Cloudy
10:53 AM 24.8 °F 11.9 °F 12.2 °F 59% 29.80 in 10.0 mi SE 16.1 mph - N/A   Scattered Clouds
11:15 AM 26.6 °F 13.1 °F 12.2 °F 55% 29.79 in 10.0 mi SE 19.6 mph 23.0 mph N/A   Clear
11:35 AM 28.4 °F 16.2 °F 12.2 °F 51% 29.77 in 10.0 mi SE 17.3 mph 25.3 mph N/A   Clear
11:53 AM 28.4 °F 15.4 °F 12.2 °F 51% 29.75 in 10.0 mi SE 19.6 mph 27.6 mph N/A   Clear
12:15 PM 28.4 °F 15.8 °F 12.2 °F 51% 29.74 in 10.0 mi SE 18.4 mph 25.3 mph N/A   Clear
12:35 PM 30.2 °F 18.5 °F 14.0 °F 51% 29.73 in 10.0 mi SE 17.3 mph 23.0 mph N/A   Clear
12:53 PM 30.2 °F 18.5 °F 15.8 °F 55% 29.73 in 10.0 mi SE 17.3 mph 23.0 mph N/A   Clear
1:15 PM 32.0 °F 21.2 °F 15.8 °F 51% 29.72 in 10.0 mi SE 16.1 mph 20.7 mph N/A   Clear
1:35 PM 32.0 °F 20.5 °F 15.8 °F 51% 29.70 in 10.0 mi SE 18.4 mph 24.2 mph N/A   Clear
1:53 PM 33.8 °F 23.2 °F 17.6 °F 52% 29.68 in 10.0 mi SE 17.3 mph - N/A   Clear
2:15 PM 33.8 °F 22.2 °F 17.6 °F 52% 29.67 in 10.0 mi SE 20.7 mph 28.8 mph N/A   Clear
2:34 PM 35.6 °F 24.5 °F 17.6 °F 48% 29.65 in 10.0 mi SSE 20.7 mph 27.6 mph N/A   Clear
2:53 PM 35.6 °F 24.2 °F 19.4 °F 52% 29.64 in 10.0 mi SE 21.9 mph 28.8 mph N/A   Clear
3:15 PM 35.6 °F 24.8 °F 19.4 °F 52% 29.63 in 10.0 mi SE 19.6 mph 26.5 mph N/A   Clear
3:34 PM 35.6 °F 24.8 °F 19.4 °F 52% 29.62 in 10.0 mi SE 19.6 mph 27.6 mph N/A   Clear
3:53 PM 35.6 °F 24.8 °F 21.2 °F 56% 29.61 in 10.0 mi SE 19.6 mph 26.5 mph N/A   Clear
4:15 PM 37.4 °F 26.9 °F 21.2 °F 52% 29.60 in 10.0 mi SE 20.7 mph 26.5 mph N/A   Clear
4:35 PM 35.6 °F 25.5 °F 21.2 °F 56% 29.59 in 10.0 mi SSE 17.3 mph 27.6 mph N/A   Clear
4:52 PM 35.6 °F 25.9 °F 21.2 °F 56% 29.58 in 10.0 mi SE 16.1 mph 23.0 mph N/A   Clear
5:14 PM 35.6 °F 25.5 °F 21.2 °F 56% 29.58 in 10.0 mi SE 17.3 mph 25.3 mph N/A   Clear
5:35 PM 35.6 °F 25.9 °F 21.2 °F 56% 29.57 in 10.0 mi ESE 16.1 mph 21.9 mph N/A   Clear
5:53 PM 33.8 °F 23.9 °F 21.2 °F 60% 29.57 in 10.0 mi ESE 15.0 mph 23.0 mph N/A   Clear
6:15 PM 33.8 °F 23.9 °F 23.0 °F 65% 29.57 in 10.0 mi ESE 15.0 mph 24.2 mph N/A   Clear
6:35 PM 33.8 °F 24.3 °F 21.2 °F 60% 29.57 in 10.0 mi ESE 13.8 mph 21.9 mph N/A   Clear
6:53 PM 33.8 °F 24.8 °F 23.0 °F 65% 29.56 in 10.0 mi ESE 12.7 mph 18.4 mph N/A   Clear
7:15 PM 33.8 °F 25.3 °F 23.0 °F 65% 29.56 in 10.0 mi East 11.5 mph 16.1 mph N/A   Clear
7:35 PM 33.8 °F 25.3 °F 23.0 °F 65% 29.56 in 10.0 mi East 11.5 mph - N/A   Clear
7:52 PM 33.8 °F 25.3 °F 23.0 °F 65% 29.56 in 10.0 mi East 11.5 mph 17.3 mph N/A   Clear
8:14 PM 32.0 °F 23.6 °F 23.0 °F 69% 29.55 in 10.0 mi East 10.4 mph - N/A   Clear
8:35 PM 32.0 °F 22.5 °F 23.0 °F 69% 29.55 in 10.0 mi East 12.7 mph - N/A   Clear
8:53 PM 32.0 °F 23.0 °F 23.0 °F 69% 29.54 in 10.0 mi East 11.5 mph 17.3 mph N/A   Clear
9:14 PM 32.0 °F 23.0 °F 23.0 °F 69% 29.54 in 10.0 mi East 11.5 mph - N/A   Clear
9:35 PM 32.0 °F 23.0 °F 23.0 °F 69% - 10.0 mi East 11.5 mph 19.6 mph N/A   Clear
9:53 PM 30.2 °F 20.2 °F 21.2 °F 69% 29.52 in 10.0 mi East 12.7 mph 17.3 mph N/A   Clear
10:14 PM 30.2 °F 20.2 °F 21.2 °F 69% 29.51 in 10.0 mi East 12.7 mph - N/A   Clear
10:35 PM 28.4 °F 18.0 °F 21.2 °F 74% 29.50 in 10.0 mi East 12.7 mph 18.4 mph N/A   Clear
10:52 PM 28.4 °F 18.0 °F 19.4 °F 69% 29.50 in 10.0 mi East 12.7 mph - N/A   Clear
11:15 PM 28.4 °F 18.5 °F 19.4 °F 69% 29.50 in 10.0 mi East 11.5 mph - N/A   Clear
11:35 PM 28.4 °F 19.1 °F 19.4 °F 69% 29.49 in 10.0 mi East 10.4 mph - N/A   Clear
11:52 PM 28.4 °F 19.7 °F 19.4 °F 69% 29.48 in 10.0 mi East 9.2 mph - N/A   Clear